Stations météo

réclame
Mon MeteoGroup
Krångede, Suède (2247): Température de l'air & dewpoint: 12.02.2019 01:00:00 - 18.02.2019 01:00:00 (CET)Krångede, Suède (2247): Vitesse du vent & gusts: 12.02.2019 01:00:00 - 18.02.2019 01:00:00 (CET)Krångede, Suède (2247): Direction du vent: 12.02.2019 01:00:00 - 18.02.2019 01:00:00 (CET)Krångede, Suède (2247): reduced air pressure: 12.02.2019 01:00:00 - 18.02.2019 01:00:00 (CET)Krångede, Suède (2247): visibility: 12.02.2019 01:00:00 - 18.02.2019 01:00:00 (CET)Krångede, Suède (2247): Quantités de précipitations: 12.02.2019 01:00:00 - 18.02.2019 01:00:00 (CET)
Date & Time tt [°C] td [°C] ff [km/h] ff [knt] fx [km/h] fx [knt] dd ppp [hPa] vv [km] rr [mm]
18.02.2019 01:00:00 0,4 -5,7 7 4 23 13 ESE 1012,5 50 0,0
18.02.2019 00:00:00 0,0 -5,2 8 4 23 13 SE 1013,2 47 0,0
17.02.2019 23:00:00 -0,1 -4,5 11 6 26 14 SE 1014,1 46 0,0
17.02.2019 22:00:00 -0,3 -4,2 12 7 26 14 SE 1015,2 44 0,0
17.02.2019 21:00:00 -0,5 -3,9 11 6 24 13 SSE 1016,5 36 0,2
17.02.2019 20:00:00 -0,2 -3,7 9 5 24 13 S 1017,0 2,3 0,0
17.02.2019 19:00:00 1,0 -7,0 5 3 17 9 SSE 1017,0 46 0,0
17.02.2019 18:00:00 0,2 -6,9 8 4 17 9 ENE 1016,7 45 0,0
17.02.2019 17:00:00 -0,7 -7,5 3 1 12 7 ESE 1018,2 36 0,0
17.02.2019 16:00:00 -0,5 -7,1 4 2 12 7 E 1018,4 33 0,0
17.02.2019 15:00:00 0,5 -7,5 3 2 6 4 ESE 1018,4 31 0,0
17.02.2019 14:00:00 0,1 -8,1 0 0 5 3 N 1018,4 30 0,0
17.02.2019 13:00:00 0,2 -8,5 0 0 7 4 N 1018,6 28 0,0
17.02.2019 12:00:00 -0,3 -8,5 2 1 8 4 SW 1018,6 24 0,0
17.02.2019 11:00:00 -1,2 -8,3 0 0 9 5 N 1018,4 31 0,0
17.02.2019 10:00:00 -2,5 -8,0 4 2 15 8 NW 1018,1 25 0,0
17.02.2019 09:00:00 -3,1 -8,4 5 3 15 8 NW 1017,5 29 0,0
17.02.2019 08:00:00 -1,7 -7,6 5 3 16 9 W 1016,6 30 0,0
17.02.2019 07:00:00 -3,4 -8,5 0 0 16 9 N 1015,9 29 0,0
17.02.2019 06:00:00 -1,7 -7,8 6 3 18 10 W 1015,3 32 0,0
17.02.2019 05:00:00 -1,4 -8,2 4 2 18 10 WSW 1014,8 37 0,0
17.02.2019 04:00:00 -1,4 -7,3 4 2 16 9 WSW 1014,4 35 0,0
17.02.2019 03:00:00 -1,3 -7,2 4 2 22 12 WSW 1013,6 37 0,0
17.02.2019 02:00:00 -0,5 -6,7 9 5 27 15 W 1012,3 35 0,0
17.02.2019 01:00:00 -0,3 -6,7 7 4 33 18 W 1011,1 40 0,0
17.02.2019 00:00:00 0,4 -6,7 13 7 33 18 W 1010,1 45 0,0
16.02.2019 23:00:00 0,2 -6,9 10 6 33 18 W 1009,4 37 0,0
16.02.2019 22:00:00 0,5 -6,4 12 6 34 18 W 1008,2 39 0,0
16.02.2019 21:00:00 0,9 -6,4 13 7 35 19 WNW 1007,2 40 0,0
16.02.2019 20:00:00 1,5 -6,3 13 7 36 20 W 1006,8 34 0,0
16.02.2019 19:00:00 1,5 -6,3 14 8 38 21 W 1006,2 35 0,0
16.02.2019 18:00:00 2,2 -6,6 14 7 38 21 W 1005,8 34 0,0
16.02.2019 17:00:00 2,8 -6,1 12 7 46 25 W 1005,2 39 0,0
16.02.2019 16:00:00 3,6 -6,1 14 8 46 25 W 1004,4 45 0,0
16.02.2019 15:00:00 4,5 -4,0 18 10 44 24 WNW 1003,4 41 0,0
16.02.2019 14:00:00 4,9 -3,9 15 8 39 21 W 1003,1 35 0,0
16.02.2019 13:00:00 4,5 -2,8 10 5 35 19 W 1002,8 34 0,0
16.02.2019 12:00:00 5,1 -3,0 14 8 46 25 W 1002,1 46 0,0
16.02.2019 11:00:00 4,7 -2,4 12 6 46 25 W 1002,1 50 0,0
16.02.2019 10:00:00 5,1 -3,0 14 8 33 18 W 1002,0 50 0,0
16.02.2019 09:00:00 4,2 -1,8 8 4 20 11 W 1002,1 50 0,0
16.02.2019 08:00:00 -3,8 -6,6 3 2 8 5 SE 1002,1 44 0,0
16.02.2019 07:00:00 -3,3 -5,6 4 2 8 4 E 1002,2 43 0,0
16.02.2019 06:00:00 -4,0 -6,6 3 1 7 4 S 1002,1 21 0,0
16.02.2019 05:00:00 -4,9 -6,4 2 1 6 3 WNW 1002,0 - 0,0
16.02.2019 04:00:00 -4,5 -6,5 0 0 6 4 N 1002,4 4,7 0,0
16.02.2019 03:00:00 -4,3 -5,8 0 0 6 4 N 1003,3 - 0,0
16.02.2019 02:00:00 -4,6 -7,2 0 0 8 4 N 1004,3 - 0,0
16.02.2019 01:00:00 -3,5 -5,8 0 0 8 4 N 1005,4 - 0,0
16.02.2019 00:00:00 -3,9 -6,5 0 0 4 2 N 1006,3 - 0,0
15.02.2019 23:00:00 -2,2 -4,7 0 0 5 3 N 1007,5 4,5 0,0
15.02.2019 22:00:00 -1,3 -3,8 0 0 5 3 N 1008,3 29 0,0
15.02.2019 21:00:00 -0,5 -3,0 0 0 9 5 N 1009,1 35 0,0
15.02.2019 20:00:00 0,4 -2,5 0 0 9 5 N 1010,0 31 0,0
15.02.2019 19:00:00 1,5 -1,4 4 2 9 5 ESE 1010,8 44 0,0
15.02.2019 18:00:00 1,1 -2,0 0 0 6 4 N 1011,4 41 0,0
15.02.2019 17:00:00 2,1 -1,3 2 1 16 9 NW 1012,2 48 0,0
15.02.2019 16:00:00 5,8 0,4 2 1 16 9 ESE 1011,8 47 0,0
15.02.2019 15:00:00 9,3 1,2 8 4 28 15 W 1012,2 48 0,0
15.02.2019 14:00:00 9,6 2,0 9 5 29 15 W 1012,7 43 0,0
15.02.2019 13:00:00 8,6 2,4 11 6 29 15 W 1013,0 38 0,0
15.02.2019 12:00:00 7,6 2,1 10 6 27 14 W 1013,4 41 0,0
15.02.2019 11:00:00 3,4 -1,2 3 2 6 3 S 1013,7 44 0,0
15.02.2019 10:00:00 2,3 -1,7 0 0 4 2 N 1013,6 50 0,0
15.02.2019 09:00:00 2,9 -1,8 0 0 16 8 N 1013,5 50 0,0
15.02.2019 08:00:00 2,4 -1,4 0 0 27 15 N 1013,7 50 0,0
15.02.2019 07:00:00 3,6 -0,1 7 4 31 17 WNW 1013,7 13 0,0
15.02.2019 06:00:00 4,0 -0,6 11 6 39 21 W 1013,7 19 0,0
15.02.2019 05:00:00 4,7 -2,0 12 7 39 21 W 1013,7 29 0,0
15.02.2019 04:00:00 4,7 -1,5 13 7 35 19 W 1013,5 25 0,0
15.02.2019 03:00:00 4,8 -1,0 13 7 35 19 W 1013,5 20 0,0
15.02.2019 02:00:00 5,1 -1,6 14 7 44 24 W 1013,2 22 0,0
15.02.2019 01:00:00 5,1 -1,4 13 7 44 24 W 1013,0 24 0,0
15.02.2019 00:00:00 5,3 -1,2 18 10 43 23 W 1012,4 30 0,0
14.02.2019 23:00:00 5,6 -1,3 16 8 47 25 W 1011,8 17 0,0
14.02.2019 22:00:00 6,1 -2,8 16 9 47 25 W 1011,5 17 0,0
14.02.2019 21:00:00 6,3 -2,8 16 9 39 21 W 1011,3 17 0,0
14.02.2019 20:00:00 6,2 -3,2 13 7 56 30 W 1011,2 16 0,0
14.02.2019 19:00:00 6,6 -2,6 16 9 56 30 W 1010,3 20 0,0
14.02.2019 18:00:00 7,4 -0,8 23 13 47 26 W 1009,5 30 0,0
14.02.2019 17:00:00 - - - - 34 18 - - - -
14.02.2019 16:00:00 8,1 -0,2 13 7 30 16 W 1008,2 50 0,0
14.02.2019 15:00:00 7,9 0,4 12 6 29 16 W 1008,3 50 0,0
14.02.2019 14:00:00 7,3 0,5 11 6 29 16 W 1009,3 12 0,0
14.02.2019 13:00:00 7,9 -1,6 8 4 17 9 WNW 1007,9 50 0,0
14.02.2019 12:00:00 5,5 -2,1 4 2 15 8 SSE 1008,4 44 0,0
14.02.2019 11:00:00 3,0 -3,1 5 3 16 8 SE 1008,4 33 0,0
14.02.2019 10:00:00 3,9 -3,4 8 4 16 8 SE 1009,5 40 0,0
14.02.2019 09:00:00 0,4 -2,6 6 3 11 6 NNW 1010,9 20 0,0
14.02.2019 08:00:00 1,6 -2,5 3 2 13 7 ESE 1012,7 23 0,0
14.02.2019 07:00:00 1,2 -2,9 2 1 13 7 WSW 1013,0 17 0,0
14.02.2019 06:00:00 1,6 -2,9 4 2 16 9 SE 1013,3 20 0,0
14.02.2019 05:00:00 2,5 -3,4 6 4 19 11 ESE 1014,2 18 0,0
14.02.2019 04:00:00 2,2 -3,1 6 4 19 11 ESE 1014,9 14 0,0
14.02.2019 03:00:00 2,7 -2,6 8 5 15 8 SE 1015,1 14 0,0
14.02.2019 02:00:00 2,3 -1,7 3 2 15 8 ESE 1016,2 11 0,1
14.02.2019 01:00:00 -0,6 -3,8 0 0 9 5 N 1016,7 12 0,0
14.02.2019 00:00:00 -1,0 -4,0 4 2 11 6 WNW 1016,0 12 0,0
13.02.2019 23:00:00 -1,2 -4,7 3 2 14 8 NW 1015,5 14 0,0
13.02.2019 22:00:00 1,9 -3,4 4 2 14 8 W 1014,6 16 0,0
13.02.2019 21:00:00 1,1 -4,5 4 2 31 17 W 1014,0 15 0,0
13.02.2019 20:00:00 3,6 -3,4 7 4 49 26 WNW 1012,6 16 0,0
13.02.2019 19:00:00 4,5 -3,3 19 10 49 26 WNW 1011,4 17 0,0
13.02.2019 18:00:00 4,2 -2,9 14 7 61 33 WNW 1009,9 21 0,0
13.02.2019 17:00:00 4,9 -2,2 23 12 66 36 WNW 1008,3 25 0,0
13.02.2019 16:00:00 4,6 -1,8 22 12 66 36 WNW 1006,6 28 0,0
13.02.2019 15:00:00 5,4 -1,5 25 13 56 31 W 1005,4 21 0,0
13.02.2019 14:00:00 5,1 -0,9 25 13 56 31 WNW 1004,8 50 0,0
13.02.2019 13:00:00 5,1 -0,6 17 9 41 22 W 1003,7 49 0,0
13.02.2019 12:00:00 4,8 -0,4 18 10 45 24 W 1003,5 40 0,0
13.02.2019 11:00:00 3,8 -0,8 15 8 45 24 W 1003,7 22 0,0
13.02.2019 10:00:00 3,6 -1,2 20 11 44 24 W 1002,6 18 0,0
13.02.2019 09:00:00 2,7 -1,3 14 8 35 19 W 1002,2 19 0,0
13.02.2019 08:00:00 2,1 -1,3 15 8 30 16 W 1001,5 46 0,0
13.02.2019 07:00:00 -4,1 -6,6 2 1 8 4 SW 1000,9 21 0,0
13.02.2019 06:00:00 -6,3 -8,7 3 2 8 4 NNW 1000,7 50 0,0
13.02.2019 05:00:00 -4,1 -6,4 2 1 7 4 NNW 1000,7 50 0,0
13.02.2019 04:00:00 -3,9 -6,7 3 1 11 6 SSE 1000,2 50 0,1
13.02.2019 03:00:00 -3,5 -6,9 0 0 17 9 N 1000,9 50 0,0
13.02.2019 02:00:00 -3,1 -5,9 5 3 17 9 ESE 1001,1 6 0,3
13.02.2019 01:00:00 -2,9 -6,2 5 3 13 7 SW 1002,1 9 0,0
13.02.2019 00:00:00 -3,8 -6,6 3 2 6 3 NE 1003,5 3,4 0,0
12.02.2019 23:00:00 -5,5 -8,4 2 1 5 3 NW 1005,4 9 0,0
12.02.2019 22:00:00 -5,6 -8,5 0 0 9 5 N 1006,5 49 0,0
12.02.2019 21:00:00 -5,5 -8,7 0 0 7 4 N 1007,5 50 0,0
12.02.2019 20:00:00 -6,2 -8,8 3 1 9 5 NW 1008,7 50 0,0
12.02.2019 19:00:00 -6,1 -9,1 0 0 6 3 N 1009,8 50 0,0
12.02.2019 18:00:00 -6,1 -8,8 0 0 6 3 N 1010,6 50 0,0
12.02.2019 17:00:00 -5,6 -8,7 0 0 16 9 N 1011,3 50 0,0
12.02.2019 16:00:00 -5,8 -8,4 2 1 18 10 SE 1011,6 50 0,0
12.02.2019 15:00:00 -1,9 -6,8 6 3 26 14 W 1011,8 50 0,0
12.02.2019 14:00:00 -0,3 -6,1 5 3 26 14 W 1011,9 46 0,0
12.02.2019 13:00:00 -0,8 -6,2 7 4 23 12 W 1011,8 36 0,0
12.02.2019 12:00:00 -1,2 -6,3 7 4 20 11 W 1011,8 38 -
12.02.2019 11:00:00 -3,5 -7,8 0 0 16 9 N 1012,1 30 0,0
12.02.2019 10:00:00 -7,1 -10,0 3 2 16 9 NE 1012,0 28 0,0
12.02.2019 09:00:00 -7,0 -11,5 3 1 23 12 W 1012,2 33 0,0
12.02.2019 08:00:00 -6,0 -9,9 3 2 23 12 NW 1011,3 42 0,0
12.02.2019 07:00:00 -4,7 -9,2 6 3 23 12 WNW 1010,6 50 0,0
12.02.2019 06:00:00 -6,7 -9,3 4 2 24 13 W 1010,3 50 0,0
12.02.2019 05:00:00 -4,3 -7,7 9 5 24 13 W 1009,6 50 0,0
12.02.2019 04:00:00 -4,4 -7,8 9 5 24 13 W 1009,3 50 0,0
12.02.2019 03:00:00 -4,8 -8,4 9 5 27 14 W 1009,1 50 0,0
12.02.2019 02:00:00 -4,6 -8,2 7 4 25 14 W 1008,7 45 0,0
12.02.2019 01:00:00 -4,2 -7,8 10 5 23 12 W 1008,2 48 0,0

tt = Température de l'air
td = dewpoint
ff = Vitesse du vent
fx = gusts
dd = Direction du vent
ppp = reduced air pressure
vv = visibility
rr = Quantités de précipitations

stations d'obs. à proximité